"Pseudo-MPEC" for ST26G86

Created 2026 Jul 23 3:35:13 UT using Find_Orb

Click here for an explanation of pseudo-MPECs

 
 Astrometry: 
     ST26G86* C2026 07 22.32102921 41 16.754+12 29 30.95   ~7M8K 18.67GVNEOCPU68
     ST26G86  C2026 07 22.32437021 41 30.245+12 24 49.78   ~7M8K 18.67GVNEOCPU68
     ST26G86  C2026 07 22.33234821 42 02.361+12 13 37.02   ~7M8K 18.26GVNEOCPU74
     ST26G86  C2026 07 22.33335021 42 06.372+12 12 12.76   ~7M8K 18.26GVNEOCPU74
     ST26G86  C2026 07 22.33790921 42 24.675+12 05 47.00   ~7M8K 18.35GVNEOCPU74
     ST26G86  C2026 07 22.33891221 42 28.689+12 04 22.79   ~7M8K 18.35GVNEOCPU74
     ST26G86  C2026 07 22.40210521 46 38.146+10 35 03.56   ~7MF5 18.64GVNEOCPU74
     ST26G86  C2026 07 22.40544721 46 51.283+10 30 19.16   ~7MF5 18.64GVNEOCPU74
     ST26G86 KB2026 07 22.89433722 21 36.360-00 46 30.54   ~7MMo 19.4 GXNEOCP595
     ST26G86 KB2026 07 22.91103522 22 37.291-01 08 16.58   ~7MMo 18.8 GXNEOCP595
     ST26G86 KB2026 07 22.92717822 23 35.345-01 29 12.01   ~7MMo 18.8 GXNEOCP595
     ST26G86 KB2026 07 22.93201022 23 52.548-01 35 27.96   ~7MMo 18.9 GXNEOCP595
     ST26G86 KB2026 07 22.94023122 24 24.598-01 45 25.67   ~7MNZ 19.3 GWNEOCPL47
     ST26G86 KB2026 07 22.94185222 24 30.262-01 47 29.87   ~7MNZ 19.3 GWNEOCPL47
     ST26G86 KB2026 07 22.95076 22 24 48.73 -01 59 56.2    ~7MNK 19.0 GXNEOCPL04
     ST26G86 KB2026 07 22.95788 22 25 13.43 -02 09 04.1    ~7MNK 19.1 GXNEOCPL04
     ST26G86 KC2026 07 23.00554122 28 23.87 -03 08 42.3    ~7N0o 18.5 GXNEOCP958
     ST26G86 KC2026 07 23.01060422 28 41.19 -03 15 06.2    ~7N0o 18.2 GXNEOCP958
     ST26G86 KC2026 07 23.01564622 28 58.28 -03 21 27.5    ~7N0o 18.9 GXNEOCP958
     ST26G86 KB2026 07 23.10429822 34 51.261-04 47 19.13   ~7N3Z 19.4 VZNEOCPY05
     ST26G86 KB2026 07 23.11466522 35 24.911-05 00 02.29   ~7N3Z 19.4 VZNEOCPY05

Station data:
(595) Farra d'Isonzo  (N45.915731 E13.525780)  Italy.  Observers S. Aschi, E.
   Pettarin, G. Panterotto. Measurers S. Aschi, E. Pettarin. 0.40-m f/5.15
   reflector + CCD.
(958) Observatoire de Dax  (N43.693381 W1.030530)  France.  Observer P.
   Dupouy. 0.32-m Schmidt-Cassegrain.
(L04) ROASTERR-1 Observatory, Cluj-Napoca  (N46.820952 E23.596400)  Romania.
   Observer L. Hudin. 0.1-m f/9 refractor + CCD.
(L47) Osservatorio Astronomico, Piobbico  (N43.585893 E12.507110)  Italy.
   Observers A. Teseo, A. Annamelia. 0.20-m f/6.3 Schmidt-Cassegrain + CCD.
(U68) JPL SynTrack Robotic Telescope, Auberry  (N37.070387 W119.412990)
   US/California.  Observers N. Saini, C. Zhai, R. Trahan, M. Zhan, M. Shao.
   0.28-m f/2.2 Schmidt + CCD.
(U74) JPL SynTrack Robotic Telescope 2, Auberry  (N37.070341 W119.412800)
   US/California.  Observers N. Saini, C. Zhai, R. Trahan, M. Zhan, M. Shao.
   0.36-m f/2.2 Schmidt.
(Y05) SONEAR Wykrota-CEAMIG, Serra da Piedade  (S19.824251 W43.690000)
   Brazil.  Observer C. Jacques. 0.45-m f/2.9 reflector + CMO.

Orbital elements:  ST26G86
   Perigee 2026 Jul 22.290651 +/- 0.00031 TT =  6:58:32.2 (JD 2461243.790651)
Epoch 2026 Jul 23.0 TT = JDT 2461244.5                           AutoNEOCP
q870381.0364 +/- 315                (J2000 equator)
H   28.57 G 0.15                    Peri.  163.192487 +/- 0.009
                                    Node   154.803509 +/- 0.000048
e  58.59705963 +/- 0.0658           Incl.   53.317543 +/- 0.00024
From 21 observations 2026 July 22-23 (19.0 hr); mean residual 0".62
Residuals in arcseconds: 
260722 U68  .28-  .24-    260722 U74  .58+  .48+    260722 L04  .01-  .11-    
260722 U68  .16-  .07+    260722 595  1.0-  1.2+    260722 L04  .17+  .45+    
260722 U74  .15+  .06+    260722 595  .40-  .15+    260723 958  .76+  .13+    
260722 U74  .00   .35+    260722 595  .56-  .89+    260723 958  1.4+  .28-    
260722 U74  .47+  .52-    260722 595  1.0-  .14-    260723 958  .59+  .34-    
260722 U74  .47+  .02-    260722 L47  .37+  2.0-    260723 Y05  .38-  .86+    
260722 U74  .62-  .44+    260722 L47  .44-  .83-    260723 Y05  .11-  .35+    

Ephemerides (geocentric):
Date (UTC) HH   RA             Dec           delta  r     elong  mag " sig PA
---- --------  ------------   ------------  ------ ------ -----  --- --------
2026 07 23 04  22 37 35.399   -06 08 39.53  954680 1.0209 141.3 19.2 .236 129
2026 07 23 05  22 40 03.651   -06 57 35.70  962493 1.0209 141.1 19.2 .196 124
2026 07 23 06  22 42 29.969   -07 45 40.90  970601 1.0209 140.9 19.2 .155 117
2026 07 23 07  22 44 54.360   -08 32 54.44  978996 1.0210 140.7 19.3 .116 105
2026 07 23 08  22 47 16.831   -09 19 15.74  987673 1.0210 140.4 19.3 .085  82
2026 07 23 09  22 49 37.391   -10 04 44.40  996622 1.0210 140.2 19.3 .079  44
2026 07 23 10  22 51 56.052   -10 49 20.17  .00672 1.0210 139.9 19.3 .105  13
2026 07 23 11  22 54 12.824   -11 33 02.91  .00679 1.0211 139.7 19.4 .149 177
2026 07 23 12  22 56 27.721   -12 15 52.63  .00685 1.0211 139.4 19.4 .202 168
2026 07 23 13  22 58 40.756   -12 57 49.43  .00692 1.0211 139.1 19.4 .258 163
2026 07 23 14  23 00 51.944   -13 38 53.52  .00699 1.0211 138.8 19.4 .316 160
2026 07 23 15  23 03 01.300   -14 19 05.23  .00706 1.0211 138.5 19.5 .377 157
2026 07 23 16  23 05 08.842   -14 58 24.95  .00713 1.0212 138.2 19.5 .439 155
2026 07 23 17  23 07 14.586   -15 36 53.17  .00720 1.0212 137.9 19.5 .502 154
2026 07 23 18  23 09 18.550   -16 14 30.43  .00727 1.0212 137.6 19.6 .565 152
2026 07 23 19  23 11 20.753   -16 51 17.35  .00735 1.0212 137.3 19.6 .630 151
2026 07 23 20  23 13 21.213   -17 27 14.60  .00743 1.0213 136.9 19.6 .695 150
2026 07 23 21  23 15 19.950   -18 02 22.91  .00751 1.0213 136.6 19.7 .761 150
2026 07 23 22  23 17 16.984   -18 36 43.05  .00758 1.0213 136.3 19.7 .826 149
2026 07 23 23  23 19 12.335   -19 10 15.80  .00766 1.0213 136.0 19.7 .893 148
2026 07 24 00  23 21 06.024   -19 43 02.01  .00775 1.0214 135.7 19.8 .959 148
2026 07 24 01  23 22 58.072   -20 15 02.52  .00783 1.0214 135.4 19.8 1.02 147
2026 07 24 02  23 24 48.499   -20 46 18.23  .00791 1.0214 135.0 19.8 1.09 147
2026 07 24 03  23 26 37.327   -21 16 50.02  .00800 1.0215 134.7 19.9 1.16 146
2026 07 24 04  23 28 24.578   -21 46 38.81  .00808 1.0215 134.4 19.9 1.22 146
2026 07 24 05  23 30 10.273   -22 15 45.50  .00817 1.0215 134.1 19.9 1.29 146
2026 07 24 06  23 31 54.434   -22 44 11.02  .00826 1.0215 133.8 19.9 1.35 145
2026 07 24 07  23 33 37.082   -23 11 56.29  .00835 1.0216 133.5 20.0 1.42 145
2026 07 24 08  23 35 18.239   -23 39 02.24  .00844 1.0216 133.2 20.0 1.48 145
2026 07 24 09  23 36 57.927   -24 05 29.77  .00853 1.0216 132.9 20.0 1.54 144
2026 07 24 10  23 38 36.168   -24 31 19.82  .00862 1.0216 132.6 20.1 1.61 144
2026 07 24 11  23 40 12.983   -24 56 33.27  .00871 1.0217 132.3 20.1 1.67 144
2026 07 24 12  23 41 48.394   -25 21 11.03  .00881 1.0217 132.0 20.1 1.73 143
2026 07 24 13  23 43 22.423   -25 45 13.99  .00890 1.0217 131.7 20.2 1.79 143
2026 07 24 14  23 44 55.089   -26 08 43.02  .00899 1.0217 131.4 20.2 1.85 143
2026 07 24 15  23 46 26.416   -26 31 38.98  .00909 1.0218 131.2 20.2 1.91 142
2026 07 24 16  23 47 56.424   -26 54 02.71  .00918 1.0218 130.9 20.3 1.97 142
2026 07 24 17  23 49 25.133   -27 15 55.06  .00928 1.0218 130.6 20.3 2.03 142
2026 07 24 18  23 50 52.565   -27 37 16.83  .00938 1.0218 130.3 20.3 2.09 142
2026 07 24 19  23 52 18.740   -27 58 08.84  .00948 1.0219 130.1 20.3 2.15 141
2026 07 24 20  23 53 43.679   -28 18 31.85  .00958 1.0219 129.8 20.4 2.20 141
2026 07 24 21  23 55 07.401   -28 38 26.65  .00967 1.0219 129.6 20.4 2.26 141
2026 07 24 22  23 56 29.926   -28 57 53.97  .00977 1.0220 129.3 20.4 2.31 141
2026 07 24 23  23 57 51.274   -29 16 54.56  .00987 1.0220 129.1 20.5 2.37 140
2026 07 25 00  23 59 11.464   -29 35 29.13  .00998 1.0220 128.8 20.5 2.42 140
2026 07 25 01  00 00 30.516   -29 53 38.38  .01008 1.0220 128.6 20.5 2.47 140
2026 07 25 02  00 01 48.448   -30 11 22.99  .01018 1.0221 128.3 20.6 2.52 140
2026 07 25 03  00 03 05.279   -30 28 43.62  .01028 1.0221 128.1 20.6 2.58 140